Hourly Weather Ruchaivka

Today, 2 August, Monday

Time Temperature Precipitation Wind Pressure Humidity
00:00 +26°C° 0 mm 2 mps 752 mmHg 50%
01:00 +26°C° 0 mm 2 mps 752 mmHg 54%
02:00 +25°C° 0 mm 2 mps 752 mmHg 59%
03:00 +25°C° 0 mm 1 mps 752 mmHg 61%
04:00 +25°C° 0 mm 1 mps 751 mmHg 62%
05:00 +25°C° 0 mm 1 mps 751 mmHg 64%
06:00 +27°C° 0 mm 1 mps 751 mmHg 58%
07:00 +29°C° 0 mm 2 mps 752 mmHg 53%
08:00 +31°C° 0 mm 2 mps 752 mmHg 48%
09:00 +32°C° 0 mm 2 mps 751 mmHg 44%
10:00 +34°C° 0 mm 3 mps 751 mmHg 40%
11:00 +35°C° 0 mm 3 mps 751 mmHg 36%
12:00 +36°C° 0 mm 3 mps 751 mmHg 34%
13:00 +36°C° 0 mm 4 mps 751 mmHg 33%
14:00 +36°C° 0 mm 4 mps 751 mmHg 31%
15:00 +36°C° 0 mm 3 mps 750 mmHg 32%
16:00 +36°C° 0 mm 3 mps 750 mmHg 32%
17:00 +36°C° 0 mm 3 mps 750 mmHg 33%
18:00 +34°C° 0 mm 3 mps 750 mmHg 37%
19:00 +33°C° 0 mm 3 mps 750 mmHg 41%
20:00 +30°C° 0 mm 3 mps 750 mmHg 45%
21:00 +28°C° 0 mm 4 mps 751 mmHg 55%
22:00 +27°C° 0 mm 5 mps 751 mmHg 65%
23:00 +24°C° 0 mm 6 mps 751 mmHg 76%

Tomorrow, 3 August, Tuesday

Time Temperature Precipitation Wind Pressure Humidity
00:00 +25°C° 0 mm 5 mps 751 mmHg 76%
01:00 +23°C° 0 mm 4 mps 752 mmHg 77%
02:00 +24°C° 0 mm 2 mps 752 mmHg 78%
03:00 +24°C° 0 mm 2 mps 752 mmHg 78%
04:00 +23°C° 0 mm 2 mps 752 mmHg 79%
05:00 +23°C° 0 mm 1 mps 752 mmHg 80%
06:00 +25°C° 0 mm 2 mps 752 mmHg 73%
07:00 +26°C° 0 mm 2 mps 752 mmHg 67%
08:00 +28°C° 0 mm 2 mps 752 mmHg 61%
09:00 +28°C° 0.1 mm 2 mps 753 mmHg 59%
10:00 +29°C° 0.1 mm 2 mps 753 mmHg 57%
11:00 +29°C° 0.1 mm 2 mps 753 mmHg 55%
12:00 +30°C° 0.1 mm 3 mps 753 mmHg 53%
13:00 +31°C° 0.1 mm 3 mps 753 mmHg 51%
14:00 +31°C° 0.1 mm 3 mps 752 mmHg 48%
15:00 +31°C° 0.1 mm 3 mps 752 mmHg 51%
16:00 +30°C° 0.1 mm 4 mps 752 mmHg 53%
17:00 +29°C° 0.1 mm 4 mps 752 mmHg 55%
18:00 +28°C° 0.1 mm 4 mps 752 mmHg 58%
19:00 +27°C° 0.1 mm 3 mps 753 mmHg 61%
20:00 +25°C° 0.1 mm 3 mps 753 mmHg 65%
21:00 +25°C° 0 mm 3 mps 753 mmHg 64%
22:00 +24°C° 0 mm 3 mps 754 mmHg 63%
23:00 +22°C° 0 mm 3 mps 754 mmHg 63%

Day after tomorrow, 4 August, Wednesday

Time Temperature Precipitation Wind Pressure Humidity
00:00 +22°C° 0 mm 3 mps 754 mmHg 63%
01:00 +22°C° 0 mm 3 mps 754 mmHg 63%
02:00 +21°C° 0 mm 3 mps 754 mmHg 63%
03:00 +21°C° 0 mm 3 mps 755 mmHg 63%
04:00 +20°C° 0 mm 3 mps 755 mmHg 64%
05:00 +20°C° 0 mm 3 mps 755 mmHg 65%
06:00 +22°C° 0 mm 3 mps 755 mmHg 61%
07:00 +25°C° 0 mm 3 mps 755 mmHg 56%
08:00 +26°C° 0 mm 3 mps 756 mmHg 51%
09:00 +28°C° 0 mm 3 mps 755 mmHg 47%
10:00 +29°C° 0 mm 3 mps 755 mmHg 43%
11:00 +30°C° 0 mm 3 mps 755 mmHg 39%
12:00 +31°C° 0 mm 3 mps 755 mmHg 37%
13:00 +31°C° 0 mm 2 mps 755 mmHg 34%
14:00 +32°C° 0 mm 2 mps 755 mmHg 32%
15:00 +31°C° 0 mm 2 mps 755 mmHg 33%
16:00 +31°C° 0 mm 3 mps 755 mmHg 35%
17:00 +31°C° 0 mm 3 mps 755 mmHg 36%
18:00 +29°C° 0 mm 3 mps 755 mmHg 40%
19:00 +27°C° 0 mm 3 mps 755 mmHg 44%
20:00 +25°C° 0 mm 3 mps 755 mmHg 48%
21:00 +25°C° 0 mm 3 mps 755 mmHg 49%
22:00 +24°C° 0 mm 3 mps 755 mmHg 50%
23:00 +24°C° 0 mm 3 mps 755 mmHg 50%

5 August, Thursday

Time Temperature Precipitation Wind Pressure Humidity
00:00 +24°C° 0 mm 3 mps 755 mmHg 51%
01:00 +22°C° 0 mm 3 mps 755 mmHg 51%
02:00 +22°C° 0 mm 3 mps 755 mmHg 52%
03:00 +23°C° 0 mm 2 mps 755 mmHg 53%
04:00 +21°C° 0 mm 2 mps 755 mmHg 55%
05:00 +21°C° 0 mm 2 mps 755 mmHg 57%
06:00 +24°C° 0 mm 2 mps 755 mmHg 51%
07:00 +26°C° 0 mm 3 mps 755 mmHg 46%
08:00 +28°C° 0 mm 3 mps 755 mmHg 41%
09:00 +30°C° 0 mm 3 mps 755 mmHg 38%
10:00 +31°C° 0 mm 3 mps 755 mmHg 34%
11:00 +33°C° 0 mm 3 mps 755 mmHg 30%
12:00 +33°C° 0 mm 3 mps 755 mmHg 29%
13:00 +34°C° 0 mm 2 mps 754 mmHg 28%
14:00 +34°C° 0 mm 2 mps 754 mmHg 27%
15:00 +34°C° 0 mm 2 mps 754 mmHg 28%
16:00 +34°C° 0 mm 2 mps 753 mmHg 29%
17:00 +34°C° 0 mm 2 mps 753 mmHg 30%
18:00 +31°C° 0 mm 2 mps 753 mmHg 33%
19:00 +29°C° 0 mm 2 mps 753 mmHg 36%
20:00 +28°C° 0 mm 2 mps 753 mmHg 39%
21:00 +27°C° 0 mm 3 mps 753 mmHg 41%
22:00 +26°C° 0 mm 3 mps 752 mmHg 43%
23:00 +25°C° 0 mm 3 mps 752 mmHg 45%

6 August, Friday

Time Temperature Precipitation Wind Pressure Humidity
00:00 +25°C° 0 mm 3 mps 752 mmHg 45%
01:00 +24°C° 0 mm 3 mps 752 mmHg 45%
02:00 +24°C° 0 mm 3 mps 752 mmHg 45%
03:00 +24°C° 0 mm 3 mps 752 mmHg 46%
04:00 +24°C° 0 mm 3 mps 752 mmHg 47%
05:00 +22°C° 0 mm 3 mps 752 mmHg 48%
06:00 +25°C° 0 mm 4 mps 751 mmHg 44%
07:00 +27°C° 0 mm 4 mps 751 mmHg 40%
08:00 +29°C° 0 mm 5 mps 751 mmHg 36%
09:00 +32°C° 0 mm 5 mps 751 mmHg 35%
10:00 +34°C° 0 mm 5 mps 750 mmHg 34%
11:00 +35°C° 0 mm 5 mps 750 mmHg 33%
12:00 +36°C° 0 mm 4 mps 750 mmHg 33%
13:00 +37°C° 0 mm 4 mps 749 mmHg 32%
14:00 +37°C° 0 mm 4 mps 749 mmHg 32%
15:00 +37°C° 0 mm 4 mps 749 mmHg 33%
16:00 +37°C° 0 mm 3 mps 748 mmHg 34%
17:00 +36°C° 0 mm 3 mps 748 mmHg 35%
18:00 +35°C° 0 mm 3 mps 748 mmHg 38%
19:00 +33°C° 0 mm 3 mps 748 mmHg 40%
20:00 +30°C° 0 mm 3 mps 748 mmHg 43%
21:00 +30°C° 0 mm 3 mps 748 mmHg 44%
22:00 +29°C° 0 mm 3 mps 748 mmHg 45%
23:00 +28°C° 0 mm 3 mps 748 mmHg 46%

7 August, Saturday

Time Temperature Precipitation Wind Pressure Humidity
00:00 +27°C° 0.6 mm 3 mps 748 mmHg 51%
01:00 +26°C° 0.6 mm 4 mps 748 mmHg 56%
02:00 +25°C° 0.6 mm 4 mps 748 mmHg 61%
03:00 +25°C° 0.9 mm 4 mps 748 mmHg 64%
04:00 +23°C° 0.9 mm 5 mps 748 mmHg 66%
05:00 +22°C° 0.9 mm 5 mps 748 mmHg 68%
06:00 +25°C° 0.3 mm 5 mps 748 mmHg 60%
07:00 +27°C° 0.3 mm 5 mps 748 mmHg 52%
08:00 +29°C° 0.3 mm 5 mps 748 mmHg 44%
09:00 +32°C° 0.2 mm 5 mps 748 mmHg 40%
10:00 +33°C° 0.2 mm 4 mps 748 mmHg 37%
11:00 +35°C° 0.2 mm 4 mps 748 mmHg 33%
12:00 +36°C° 0.1 mm 4 mps 747 mmHg 32%
13:00 +37°C° 0.1 mm 4 mps 747 mmHg 30%
14:00 +38°C° 0.1 mm 4 mps 747 mmHg 28%
15:00 +37°C° 0 mm 5 mps 747 mmHg 31%
16:00 +37°C° 0 mm 5 mps 747 mmHg 34%
17:00 +36°C° 0 mm 5 mps 747 mmHg 37%
18:00 +34°C° 0 mm 5 mps 747 mmHg 43%
19:00 +32°C° 0 mm 4 mps 747 mmHg 50%
20:00 +29°C° 0 mm 4 mps 747 mmHg 57%
21:00 +28°C° 0.1 mm 4 mps 748 mmHg 61%
22:00 +27°C° 0.1 mm 4 mps 748 mmHg 65%
23:00 +26°C° 0.1 mm 3 mps 749 mmHg 69%
Show more

We Need Your Consent

Meteoprog and our Service Providers may store and access personal data such as cookies, device identifiers or other similar technologies on your device and process such data to personalise content and ads, as well as provide social media features and to analyse the traffic.

  • Store and/or access information on your device

    Cookies, device identifiers or other information can be stored or accessed on your device for the purposes indicated above.

  • Personalised ads and content, ad and content measurement, audience insights, and products development

    Ads and content can be personalised based on a profile. More data can be added to better personalise ads and content. Ad and content performance can be measured. Insights about the audience who saw the ads and content can be derived. Such data can be used to develop or improve user’s experience, systems and software.

By clicking ‘I Agree’ you will allow the use of indicated cookies, device identifiers, web beacons or other similar technologies. Your settings can be changed in the browser on your device.

For certain purposes, legitimate interests may be relied on, rather than consent. You can read more about this in our Privacy and Cookie Policy.